This demonstration page uses our WeatherBlox Daily Observations layout. Learn more.

Left ArrowRight Arrow

Hourly Observations for August 21, 2018

Temp ( °F °C ) Dew Point ( °F °C ) Humidity (%) Winds ( mph kmh ) Pressure ( in mb ) Visibility ( mi km ) Precip ( " mm )
12:16 am 00:16 Partly Cloudy 68 20 68 20 100 100 Calm 29.8 1009 10 16.0934 N/A
12:37 am 00:37 Partly Cloudy 68 20 68 20 100 100 SSE 3 6 29.8 1009 10 16.0934 N/A
12:56 am 00:56 Partly Cloudy 70 21 70 21 100 100 SE 3 6 29.8 1009 10 16.0934 N/A
1:17 am 01:17 Mostly Cloudy 70 21 70 21 100 100 SE 5 7 29.8 1009 10 16.0934 N/A
2:37 am 02:37 Cloudy 72 22 72 22 100 100 S 3 6 29.77 1008 10 16.0934 N/A
2:56 am 02:56 Cloudy 72 22 72 22 100 100 Calm 29.77 1008 10 16.0934 N/A
3:17 am 03:17 Cloudy 72 22 72 22 100 100 Calm 29.77 1008 7 11.26538 N/A
3:36 am 03:36 Cloudy 72 22 72 22 100 100 Calm 29.77 1008 7 11.26538 N/A
3:56 am 03:56 Cloudy 72 22 72 22 100 100 Calm 29.77 1008 7 11.26538 N/A
4:17 am 04:17 Cloudy 72 22 72 22 100 100 Calm 29.74 1007 7 11.26538 N/A
4:36 am 04:36 Mostly Cloudy 72 22 72 22 100 100 S 7 11 29.74 1007 10 16.0934 N/A
4:57 am 04:57 Cloudy 72 22 72 22 100 100 SSW 7 11 29.74 1007 10 16.0934 N/A
5:16 am 05:16 Cloudy 72 22 72 22 100 100 SSW 6 9 29.74 1007 10 16.0934 N/A
5:37 am 05:37 Cloudy 70 21 70 21 100 100 S 7 11 29.74 1007 10 16.0934 N/A
5:56 am 05:56 Cloudy 70 21 70 21 100 100 S 9 15 29.74 1007 10 16.0934 N/A
6:17 am 06:17 Cloudy 70 21 70 21 100 100 S 15 24 29.74 1007 10 16.0934 N/A
6:36 am 06:36 Cloudy 68 20 68 20 100 100 SW 16 26 29.74 1007 10 16.0934 N/A
6:57 am 06:57 Cloudy 68 20 68 20 100 100 WSW 14 22 29.77 1008 7 11.26538 N/A
7:16 am 07:16 Cloudy 68 20 68 20 100 100 WSW 13 20 29.77 1008 7 11.26538 N/A
7:37 am 07:37 Cloudy 68 20 68 20 100 100 WSW 12 19 29.77 1008 10 16.0934 N/A
7:56 am 07:56 Cloudy 68 20 68 20 100 100 WSW 8 13 29.77 1008 10 16.0934 N/A
8:17 am 08:17 Cloudy 68 20 68 20 100 100 WSW 8 13 29.8 1009 10 16.0934 N/A
8:37 am 08:37 Cloudy 70 21 70 21 100 100 SW 10 17 29.8 1009 10 16.0934 N/A
8:56 am 08:56 Cloudy 70 21 70 21 100 100 SW 9 15 29.8 1009 7 11.26538 N/A
9:17 am 09:17 Cloudy 70 21 70 21 100 100 SW 7 11 29.8 1009 7 11.26538 N/A
9:36 am 09:36 Cloudy 70 21 70 21 100 100 WSW 8 13 29.8 1009 10 16.0934 N/A
9:57 am 09:57 Cloudy 70 21 70 21 100 100 SW 10 17 29.8 1009 10 16.0934 N/A
10:16 am 10:16 Cloudy 70 21 70 21 100 100 SW 8 13 29.8 1009 10 16.0934 N/A
10:37 am 10:37 Cloudy 70 21 70 21 100 100 WSW 8 13 29.8 1009 7 11.26538 N/A
10:56 am 10:56 Cloudy 70 21 70 21 100 100 SW 10 17 29.8 1009 7 11.26538 N/A
11:17 am 11:17 Cloudy 72 22 72 22 100 100 SW 10 17 29.8 1009 10 16.0934 N/A
11:36 am 11:36 Cloudy 72 22 72 22 100 100 WSW 13 20 29.83 1010 7 11.26538 N/A
11:57 am 11:57 Cloudy 72 22 72 22 100 100 WSW 8 13 29.83 1010 10 16.0934 N/A
12:16 pm 12:16 Cloudy 73 23 73 23 100 100 SW 13 20 29.83 1010 10 16.0934 N/A
12:37 pm 12:37 Cloudy 73 23 73 23 100 100 SW 12 19 29.83 1010 10 16.0934 N/A
12:56 pm 12:56 Cloudy 72 22 72 22 100 100 WSW 9 15 29.83 1010 4 6.43736 N/A
1:17 pm 13:17 Cloudy 72 22 72 22 100 100 WSW 10 17 29.83 1010 7 11.26538 N/A
1:36 pm 13:36 Cloudy 73 23 73 23 100 100 WSW 12 19 29.83 1010 7 11.26538 N/A
1:56 pm 13:56 Mostly Cloudy 75 24 73 23 94 94 W 13 20 29.8 1009 10 16.0934 N/A
2:17 pm 14:17 Mostly Cloudy 75 24 73 23 94 94 W 12 19 29.8 1009 10 16.0934 N/A
2:36 pm 14:36 Mostly Cloudy 77 25 73 23 89 89 WSW 14 22 29.8 1009 10 16.0934 N/A
2:57 pm 14:57 Partly Cloudy 79 26 73 23 84 84 WSW 10 17 29.8 1009 10 16.0934 N/A
3:16 pm 15:16 Partly Cloudy 79 26 73 23 84 84 W 10 17 29.8 1009 10 16.0934 N/A
3:37 pm 15:37 Mostly Cloudy 79 26 73 23 84 84 W 14 22 29.8 1009 10 16.0934 N/A
3:56 pm 15:56 Partly Cloudy 81 27 73 23 79 79 W 13 20 29.8 1009 10 16.0934 N/A
4:17 pm 16:17 Mostly Cloudy 72 22 72 22 100 100 WNW 7 11 29.83 1010 2.5 4.02335 N/A
4:36 pm 16:36 Cloudy 77 25 75 24 94 94 W 7 11 29.83 1010 10 16.0934 N/A
4:57 pm 16:57 Mostly Cloudy 77 25 73 23 89 89 WSW 8 13 29.83 1010 10 16.0934 N/A
5:16 pm 17:16 Mostly Cloudy 75 24 72 22 89 89 WNW 21 33 29.85 1011 10 16.0934 N/A
5:37 pm 17:37 Cloudy 70 21 70 21 100 100 WNW 8 13 29.85 1011 5 8.0467 N/A
5:56 pm 17:56 Cloudy 73 23 72 22 94 94 WNW 8 13 29.83 1010 10 16.0934 N/A
6:17 pm 18:17 Cloudy 75 24 73 23 94 94 W 9 15 29.85 1011 10 16.0934 N/A
6:37 pm 18:37 Partly Cloudy 73 23 73 23 100 100 W 12 19 29.85 1011 10 16.0934 N/A
6:56 pm 18:56 Mostly Cloudy 73 23 73 23 100 100 W 14 22 29.85 1011 10 16.0934 N/A
7:17 pm 19:17 Cloudy 73 23 72 22 94 94 NW 6 9 29.85 1011 10 16.0934 N/A
7:36 pm 19:36 Cloudy 73 23 72 22 94 94 WNW 9 15 29.85 1011 10 16.0934 N/A
7:57 pm 19:57 Mostly Cloudy 72 22 72 22 100 100 WNW 10 17 29.85 1011 10 16.0934 N/A
8:16 pm 20:16 Mostly Cloudy 72 22 72 22 100 100 WNW 9 15 29.88 1012 10 16.0934 N/A
8:37 pm 20:37 Mostly Cloudy 72 22 72 22 100 100 NW 10 17 29.88 1012 10 16.0934 N/A
8:56 pm 20:56 Mostly Cloudy 72 22 70 21 94 94 NW 9 15 29.88 1012 10 16.0934 N/A
9:16 pm 21:16 Cloudy 72 22 68 20 88 88 NW 9 15 29.91 1013 10 16.0934 N/A
9:37 pm 21:37 Mostly Cloudy 70 21 68 20 94 94 NNW 8 13 29.91 1013 10 16.0934 N/A
9:56 pm 21:56 Partly Cloudy 68 20 68 20 100 100 NNW 7 11 29.94 1014 10 16.0934 N/A
10:16 pm 22:16 Clear 68 20 66 19 94 94 NNW 10 17 29.97 1015 10 16.0934 N/A
10:37 pm 22:37 Clear 68 20 66 19 94 94 NW 10 17 29.97 1015 10 16.0934 N/A
10:56 pm 22:56 Clear 68 20 66 19 94 94 NW 9 15 29.97 1015 10 16.0934 N/A
11:17 pm 23:17 Clear 68 20 66 19 94 94 NW 8 13 30 1016 10 16.0934 N/A
11:36 pm 23:36 Clear 66 19 66 19 100 100 NNW 9 15 30 1016 10 16.0934 N/A
11:57 pm 23:57 Clear 66 19 66 19 100 100 NNW 9 15 30 1016 10 16.0934 N/A

Powered by AerisWeather